This demonstration page uses our WeatherBlox Daily Observations layout. Learn more.

Left ArrowRight Arrow

34.16533, -84.80231

Hourly Observations for August 18, 2019

Temp ( °F °C ) Dew Point ( °F °C ) Humidity (%) Winds ( mph kmh ) Pressure ( in mb ) Visibility ( mi km ) Precip ( " mm )
12:53 am 00:53 Clear 69 20.6 62 16.7 78 78 Calm 29.96 1015 10 16 0.00 0.00
1:53 am 01:53 Clear 69 20.6 63 17.2 81 81 Calm 29.96 1015 10 16 0.00 0.00
2:53 am 02:53 Clear 69 20.6 64 17.8 84 84 Calm 29.95 1014 10 16 0.00 0.00
3:53 am 03:53 Clear 71 21.7 67 19.4 87 87 Calm 29.96 1015 10 16 0.00 0.00
4:53 am 04:53 Clear 69 20.6 66 18.9 90 90 Calm 29.96 1015 10 16 0.00 0.00
5:53 am 05:53 Clear 69 20.6 65 18.3 87 87 Calm 29.97 1015 10 16 0.00 0.00
6:53 am 06:53 Clear 70 21.1 66 18.9 87 87 E 3 6 29.98 1015 10 16 0.00 0.00
7:53 am 07:53 Sunny 73 22.8 68 20 84 84 Calm 30.00 1016 10 16 0.00 0.00
8:53 am 08:53 Sunny 77 25 70 21.1 79 79 ESE 5 7 30.01 1016 10 16 0.00 0.00
9:53 am 09:53 Sunny 81 27.2 71 21.7 72 72 Calm 30.01 1016 10 16 0.00 0.00
10:53 am 10:53 Sunny 84 28.9 72 22.2 67 67 Calm 30.03 1017 10 16 0.00 0.00
11:53 am 11:53 Sunny 88 31.1 72 22.2 59 59 Calm 30.02 1017 10 16 0.00 0.00
12:53 pm 12:53 Sunny 92 33.3 72 22.2 52 52 NE 5 7 30.02 1017 10 16 0.00 0.00
1:53 pm 13:53 Sunny 95 35 68 20 41 41 VRB 3 6 30.00 1016 10 16 0.00 0.00
2:53 pm 14:53 Sunny 96 35.6 63 17.2 34 34 NE 3 6 29.98 1015 10 16 0.00 0.00
3:53 pm 15:53 Sunny 96 35.6 62 16.7 32 32 Calm 29.95 1014 10 16 0.00 0.00
4:53 pm 16:53 Sunny 96 35.6 62 16.7 32 32 SSW 5 7 29.93 1014 10 16 0.00 0.00
5:53 pm 17:53 Sunny 95 35 61 16.1 32 32 VRB 5 7 29.93 1013 10 16 0.00 0.00
7:53 pm 19:53 Sunny 87 30.6 71 21.7 59 59 Calm 29.94 1014 10 16 0.00 0.00
8:53 pm 20:53 Clear 81 27.2 69 20.6 67 67 Calm 29.95 1014 10 16 0.00 0.00
9:53 pm 21:53 Clear 85 29.4 69 20.6 59 59 SSE 6 9 29.96 1015 10 16 0.00 0.00
10:53 pm 22:53 Clear 82 27.8 69 20.6 65 65 VRB 3 6 29.98 1015 10 16 0.00 0.00
11:53 pm 23:53 Clear 80 26.7 69 20.6 69 69 Calm 29.98 1015 10 16 0.00 0.00

Powered by AerisWeather